| time (UTC) | temp C | wind direction | speed KPH | gust KPH | rain 1hr cm | rain 24hr cm | rain mn cm | humidity % | barometer mb |
| 20260506014038 | 13 | 113 | 1.6 | 3.2 | 0.00 | 0.33 | 0.33 | 93 | 1005.2 |
| 20260506013538 | 13 | 108 | 0.0 | 3.2 | 0.00 | 0.33 | 0.33 | 94 | 1005.2 |
| 20260506013048 | 13 | 0 | 0.0 | 4.8 | 0.00 | 0.33 | 0.33 | 93 | 1005.2 |
| 20260506012538 | 13 | 0 | 0.0 | 4.8 | 0.00 | 0.33 | 0.33 | 92 | 1005.0 |
| 20260506012038 | 14 | 115 | 1.6 | 4.8 | 0.00 | 0.33 | 0.33 | 91 | 1004.9 |
| 20260506011608 | 14 | 90 | 0.0 | 3.2 | 0.00 | 0.33 | 0.33 | 91 | 1004.9 |
| 20260506011038 | 14 | 0 | 0.0 | 3.2 | 0.00 | 0.33 | 0.33 | 90 | 1004.7 |
| 20260506010538 | 14 | 0 | 0.0 | 1.6 | 0.00 | 0.33 | 0.33 | 91 | 1004.7 |
| 20260506010045 | 14 | 0 | 0.0 | 3.2 | 0.00 | 0.33 | 0.33 | 91 | 1004.4 |
| 20260506005538 | 14 | 0 | 0.0 | 3.2 | 0.00 | 0.33 | 0.33 | 91 | 1004.4 |
| 20260506005043 | 14 | 102 | 0.0 | 3.2 | 0.00 | 0.33 | 0.33 | 91 | 1004.2 |
| 20260506004547 | 14 | 116 | 0.0 | 1.6 | 0.00 | 0.33 | 0.33 | 91 | 1004.1 |
| 20260506004038 | 14 | 0 | 0.0 | 1.6 | 0.00 | 0.33 | 0.33 | 91 | 1004.0 |
| 20260506003539 | 13 | 0 | 0.0 | 3.2 | 0.00 | 0.33 | 0.33 | 92 | 1004.1 |
| 20260506003047 | 13 | 0 | 0.0 | 4.8 | 0.00 | 0.33 | 0.33 | 93 | 1004.2 |
| 20260506002538 | 13 | 0 | 1.6 | 4.8 | 0.00 | 0.33 | 0.33 | 94 | 1004.1 |
| 20260506002038 | 13 | 0 | 0.0 | 1.6 | 0.00 | 0.33 | 0.33 | 94 | 1004.1 |
| 20260506001551 | 13 | 0 | 0.0 | 1.6 | 0.00 | 0.33 | 0.33 | 94 | 1004.0 |
| 20260506001038 | 13 | 0 | 0.0 | 1.6 | 0.03 | 0.33 | 0.33 | 93 | 1004.0 |
| 20260506000538 | 13 | 0 | 0.0 | 1.6 | 0.03 | 0.33 | 0.33 | 95 | 1003.9 |
| 20260506000057 | 13 | 89 | 0.0 | 1.6 | 0.03 | 0.33 | 0.33 | 96 | 1003.8 |
| 20260505235538 | 13 | 0 | 0.0 | 1.6 | 0.03 | 0.33 | 0.33 | 96 | 1003.9 |
| 20260505235038 | 13 | 0 | 0.0 | 0.0 | 0.03 | 0.33 | 0.33 | 96 | 1003.8 |
| 20260505234550 | 13 | 0 | 0.0 | 1.6 | 0.03 | 0.33 | 0.33 | 96 | 1003.7 |
| 20260505234042 | 13 | 0 | 0.0 | 3.2 | 0.05 | 0.33 | 0.33 | 95 | 1003.7 |
| 20260505233538 | 13 | 0 | 0.0 | 6.4 | 0.05 | 0.33 | 0.33 | 95 | 1003.6 |
| 20260505233048 | 13 | 88 | 1.6 | 6.4 | 0.08 | 0.33 | 0.33 | 95 | 1003.3 |
| 20260505232538 | 13 | 0 | 0.0 | 6.4 | 0.08 | 0.33 | 0.33 | 94 | 1002.9 |
| 20260505232039 | 13 | 148 | 1.6 | 9.7 | 0.10 | 0.33 | 0.33 | 94 | 1002.9 |
| 20260505231549 | 14 | 328 | 1.6 | 9.7 | 0.10 | 0.33 | 0.33 | 94 | 1003.5 |
| 20260505231038 | 14 | 105 | 1.6 | 9.7 | 0.10 | 0.30 | 0.30 | 94 | 1003.6 |
| 20260505230538 | 14 | 172 | 1.6 | 14.5 | 0.13 | 0.30 | 0.30 | 94 | 1003.5 |
| 20260505230047 | 14 | 280 | 3.2 | 14.5 | 0.13 | 0.30 | 0.30 | 93 | 1003.5 |
| 20260505225535 | 14 | 219 | 4.8 | 14.5 | 0.15 | 0.30 | 0.30 | 93 | 1003.4 |
| 20260505225038 | 14 | 252 | 6.4 | 19.3 | 0.18 | 0.30 | 0.30 | 93 | 1003.1 |
| 20260505224550 | 14 | 231 | 8.0 | 20.9 | 0.20 | 0.30 | 0.30 | 93 | 1003.1 |
| 20260505224039 | 14 | 244 | 11.3 | 20.9 | 0.28 | 0.28 | 0.28 | 93 | 1003.0 |
| 20260505223545 | 14 | 271 | 12.9 | 24.1 | 0.28 | 0.28 | 0.28 | 93 | 1003.0 |
| 20260505223048 | 14 | 247 | 12.9 | 27.4 | 0.25 | 0.25 | 0.25 | 92 | 1002.9 |
| 20260505222538 | 14 | 248 | 16.1 | 27.4 | 0.25 | 0.25 | 0.25 | 91 | 1002.9 |
| 20260505222038 | 15 | 249 | 14.5 | 27.4 | 0.23 | 0.23 | 0.23 | 91 | 1002.9 |
| 20260505221600 | 15 | 243 | 14.5 | 33.8 | 0.20 | 0.20 | 0.20 | 91 | 1002.8 |
| 20260505221039 | 15 | 190 | 16.1 | 40.2 | 0.18 | 0.18 | 0.18 | 90 | 1003.0 |
| 20260505220539 | 15 | 260 | 19.3 | 40.2 | 0.18 | 0.18 | 0.18 | 88 | 1002.9 |
| 20260505220104 | 15 | 227 | 24.1 | 38.6 | 0.18 | 0.18 | 0.18 | 89 | 1002.7 |
| 20260505215541 | 15 | 250 | 17.7 | 30.6 | 0.15 | 0.15 | 0.15 | 89 | 1002.4 |
| 20260505215038 | 15 | 271 | 19.3 | 51.5 | 0.13 | 0.13 | 0.13 | 88 | 1002.3 |
| 20260505214553 | 16 | 265 | 25.7 | 51.5 | 0.10 | 0.10 | 0.10 | 84 | 1002.0 |
| 20260505214039 | 20 | 257 | 32.2 | 51.5 | 0.00 | 0.00 | 0.00 | 71 | 1002.1 |
| 20260505213539 | 22 | 259 | 6.4 | 17.7 | 0.00 | 0.00 | 0.00 | 56 | 1000.5 |
| 20260505213052 | 22 | 92 | 6.4 | 17.7 | 0.00 | 0.00 | 0.00 | 56 | 999.7 |
| 20260505212538 | 22 | 103 | 4.8 | 22.5 | 0.00 | 0.00 | 0.00 | 55 | 999.7 |
| 20260505212038 | 22 | 96 | 8.0 | 22.5 | 0.00 | 0.00 | 0.00 | 55 | 999.3 |
| 20260505211547 | 22 | 74 | 6.4 | 17.7 | 0.00 | 0.00 | 0.00 | 55 | 999.4 |
| 20260505211037 | 22 | 67 | 4.8 | 19.3 | 0.00 | 0.00 | 0.00 | 55 | 999.2 |
| 20260505210538 | 22 | 77 | 4.8 | 19.3 | 0.00 | 0.00 | 0.00 | 54 | 999.3 |
| 20260505210052 | 22 | 87 | 3.2 | 17.7 | 0.00 | 0.00 | 0.00 | 55 | 999.3 |
| 20260505205538 | 22 | 71 | 6.4 | 16.1 | 0.00 | 0.00 | 0.00 | 55 | 999.4 |
| 20260505205039 | 22 | 75 | 8.0 | 25.7 | 0.00 | 0.00 | 0.00 | 55 | 999.4 |
| 20260505204557 | 22 | 46 | 4.8 | 25.7 | 0.00 | 0.00 | 0.00 | 55 | 999.4 |
| 20260505204041 | 22 | 122 | 8.0 | 25.7 | 0.00 | 0.00 | 0.00 | 54 | 999.3 |
| 20260505203540 | 22 | 86 | 3.2 | 14.5 | 0.00 | 0.00 | 0.00 | 52 | 999.3 |
| 20260505203050 | 22 | 0 | 3.2 | 24.1 | 0.00 | 0.00 | 0.00 | 53 | 999.4 |
| 20260505202539 | 23 | 169 | 3.2 | 24.1 | 0.00 | 0.00 | 0.00 | 51 | 999.4 |
| 20260505202038 | 23 | 46 | 8.0 | 24.1 | 0.00 | 0.00 | 0.00 | 47 | 999.4 |
| 20260505201555 | 23 | 86 | 3.2 | 22.5 | 0.00 | 0.00 | 0.00 | 43 | 999.4 |
| 20260505201039 | 24 | 4 | 6.4 | 22.5 | 0.00 | 0.00 | 0.00 | 43 | 999.2 |
| 20260505200538 | 24 | 95 | 8.0 | 22.5 | 0.00 | 0.00 | 0.00 | 43 | 999.1 |
| 20260505200048 | 24 | 260 | 8.0 | 22.5 | 0.00 | 0.00 | 0.00 | 43 | 999.3 |
| 20260505195538 | 24 | 147 | 3.2 | 17.7 | 0.00 | 0.00 | 0.00 | 45 | 999.4 |
| 20260505195038 | 24 | 65 | 3.2 | 20.9 | 0.00 | 0.00 | 0.00 | 44 | 999.4 |
| 20260505194558 | 25 | 100 | 8.0 | 20.9 | 0.00 | 0.00 | 0.00 | 43 | 999.4 |
| 20260505194040 | 25 | 34 | 9.7 | 20.9 | 0.00 | 0.00 | 0.00 | 43 | 999.3 |
| 20260505193539 | 25 | 300 | 6.4 | 24.1 | 0.00 | 0.00 | 0.00 | 43 | 999.3 |
| 20260505193046 | 25 | 16 | 9.7 | 24.1 | 0.00 | 0.00 | 0.00 | 43 | 999.4 |
| 20260505192538 | 25 | 283 | 6.4 | 20.9 | 0.00 | 0.00 | 0.00 | 44 | 999.6 |
| 20260505192036 | 25 | 75 | 8.0 | 20.9 | 0.00 | 0.00 | 0.00 | 43 | 999.6 |
| 20260505191550 | 25 | 326 | 8.0 | 20.9 | 0.00 | 0.00 | 0.00 | 44 | 999.5 |
| 20260505191037 | 25 | 242 | 4.8 | 27.4 | 0.00 | 0.00 | 0.00 | 44 | 999.6 |
| 20260505190539 | 25 | 44 | 8.0 | 27.4 | 0.00 | 0.00 | 0.00 | 45 | 999.6 |
| 20260505190051 | 24 | 257 | 6.4 | 24.1 | 0.00 | 0.00 | 0.00 | 46 | 999.8 |
| 20260505185539 | 24 | 34 | 9.7 | 27.4 | 0.00 | 0.00 | 0.00 | 46 | 999.9 |
| 20260505185043 | 25 | 70 | 9.7 | 27.4 | 0.00 | 0.00 | 0.00 | 45 | 999.8 |
| 20260505184552 | 24 | 68 | 9.7 | 27.4 | 0.00 | 0.00 | 0.00 | 47 | 999.8 |
| 20260505184041 | 24 | 258 | 4.8 | 19.3 | 0.00 | 0.00 | 0.00 | 46 | 1000.1 |
| 20260505183543 | 24 | 273 | 6.4 | 17.7 | 0.00 | 0.00 | 0.00 | 46 | 1000.1 |
| 20260505183052 | 24 | 266 | 6.4 | 16.1 | 0.00 | 0.00 | 0.00 | 47 | 1000.3 |
| 20260505182538 | 24 | 293 | 6.4 | 16.1 | 0.00 | 0.00 | 0.00 | 47 | 1000.3 |
| 20260505182038 | 24 | 203 | 4.8 | 17.7 | 0.00 | 0.00 | 0.00 | 46 | 1000.4 |
| 20260505181548 | 24 | 293 | 4.8 | 25.7 | 0.00 | 0.00 | 0.00 | 47 | 1000.4 |
| 20260505181040 | 24 | 83 | 8.0 | 25.7 | 0.00 | 0.00 | 0.00 | 47 | 1000.5 |
| 20260505180538 | 24 | 186 | 6.4 | 25.7 | 0.00 | 0.00 | 0.00 | 46 | 1000.5 |
| 20260505180055 | 24 | 105 | 4.8 | 22.5 | 0.00 | 0.00 | 0.00 | 47 | 1000.7 |
| 20260505175541 | 23 | 243 | 8.0 | 22.5 | 0.00 | 0.00 | 0.00 | 46 | 1000.6 |
| 20260505175041 | 24 | 2 | 9.7 | 22.5 | 0.00 | 0.00 | 0.00 | 45 | 1000.7 |
| 20260505174548 | 24 | 74 | 4.8 | 19.3 | 0.00 | 0.00 | 0.00 | 46 | 1000.8 |
| 20260505174039 | 25 | 200 | 6.4 | 19.3 | 0.00 | 0.00 | 0.00 | 46 | 1000.8 |
| 20260505173539 | 25 | 14 | 8.0 | 29.0 | 0.00 | 0.00 | 0.00 | 46 | 1000.9 |
| 20260505173048 | 25 | 32 | 4.8 | 29.0 | 0.00 | 0.00 | 0.00 | 46 | 1001.1 |
| 20260505172540 | 25 | 72 | 6.4 | 19.3 | 0.00 | 0.00 | 0.00 | 46 | 1001.0 |
| 20260505172040 | 25 | 352 | 6.4 | 19.3 | 0.00 | 0.00 | 0.00 | 46 | 1001.1 |
| 20260505171551 | 25 | 215 | 8.0 | 22.5 | 0.00 | 0.00 | 0.00 | 46 | 1001.1 |
| 20260505171040 | 24 | 235 | 4.8 | 22.5 | 0.00 | 0.00 | 0.00 | 47 | 1001.3 |
| 20260505170541 | 24 | 144 | 4.8 | 25.7 | 0.00 | 0.00 | 0.00 | 47 | 1001.4 |
| 20260505170051 | 24 | 233 | 8.0 | 25.7 | 0.00 | 0.00 | 0.00 | 46 | 1001.4 |
| 20260505165540 | 24 | 289 | 6.4 | 22.5 | 0.00 | 0.00 | 0.00 | 47 | 1001.6 |
| 20260505165040 | 24 | 99 | 6.4 | 19.3 | 0.00 | 0.00 | 0.00 | 46 | 1001.5 |
| 20260505164558 | 24 | 250 | 4.8 | 16.1 | 0.00 | 0.00 | 0.00 | 48 | 1001.7 |
| 20260505164041 | 24 | 213 | 4.8 | 17.7 | 0.00 | 0.00 | 0.00 | 49 | 1001.9 |
| 20260505163540 | 23 | 285 | 6.4 | 17.7 | 0.00 | 0.00 | 0.00 | 48 | 1002.1 |
| 20260505163048 | 23 | 101 | 6.4 | 17.7 | 0.00 | 0.00 | 0.00 | 47 | 1002.1 |
| 20260505162539 | 23 | 250 | 4.8 | 20.9 | 0.00 | 0.00 | 0.00 | 48 | 1002.3 |
| 20260505162040 | 23 | 53 | 6.4 | 20.9 | 0.00 | 0.00 | 0.00 | 49 | 1002.4 |
| 20260505161555 | 23 | 74 | 4.8 | 19.3 | 0.00 | 0.00 | 0.00 | 49 | 1002.5 |
| 20260505161042 | 22 | 139 | 3.2 | 19.3 | 0.00 | 0.00 | 0.00 | 50 | 1002.6 |
| 20260505160540 | 22 | 90 | 4.8 | 19.3 | 0.00 | 0.00 | 0.00 | 51 | 1002.7 |
| 20260505153104 | 19 | 337 | 3.2 | 16.1 | 0.00 | 0.08 | 0.00 | 56 | 1003.4 |
| 20260505152543 | 18 | 108 | 3.2 | 12.9 | 0.00 | 0.08 | 0.00 | 57 | 1003.7 |
| 20260505152039 | 18 | 87 | 3.2 | 11.3 | 0.00 | 0.08 | 0.00 | 57 | 1003.7 |
| 20260505151549 | 18 | 122 | 4.8 | 12.9 | 0.00 | 0.08 | 0.00 | 56 | 1003.7 |
| 20260505151040 | 18 | 75 | 3.2 | 12.9 | 0.00 | 0.08 | 0.00 | 56 | 1003.7 |
| 20260505150540 | 18 | 313 | 3.2 | 12.9 | 0.00 | 0.08 | 0.00 | 57 | 1003.9 |
| 20260505140542 | 17 | 49 | 0.0 | 11.3 | 0.00 | 0.08 | 0.00 | 60 | 1003.7 |
| 20260505130106 | 13 | 50 | 0.0 | 4.8 | 0.00 | 0.08 | 0.00 | 67 | 1003.9 |
| 20260505125038 | 14 | 0 | 0.0 | 4.8 | 0.00 | 0.08 | 0.00 | 66 | 1003.9 |
| 20260505124614 | 14 | 0 | 1.6 | 4.8 | 0.00 | 0.08 | 0.00 | 66 | 1004.0 |
| 20260505124038 | 13 | 0 | 0.0 | 4.8 | 0.00 | 0.08 | 0.00 | 68 | 1004.0 |
| 20260505123537 | 13 | 0 | 0.0 | 4.8 | 0.00 | 0.08 | 0.00 | 70 | 1004.2 |
| 20260505123109 | 13 | 95 | 1.6 | 4.8 | 0.00 | 0.08 | 0.00 | 68 | 1004.1 |
| 20260505122538 | 12 | 83 | 0.0 | 4.8 | 0.00 | 0.08 | 0.00 | 69 | 1004.0 |
| 20260505122038 | 12 | 0 | 1.6 | 4.8 | 0.00 | 0.08 | 0.00 | 70 | 1004.1 |
| 20260505121552 | 12 | 0 | 0.0 | 4.8 | 0.00 | 0.08 | 0.00 | 72 | 1004.3 |
| 20260505121039 | 12 | 0 | 0.0 | 4.8 | 0.00 | 0.08 | 0.00 | 71 | 1004.4 |
| 20260505120539 | 12 | 86 | 0.0 | 4.8 | 0.00 | 0.08 | 0.00 | 71 | 1004.7 |
| 20260505115538 | 11 | 0 | 1.6 | 4.8 | 0.00 | 0.08 | 0.00 | 70 | 1004.5 |
| 20260505115041 | 11 | 78 | 1.6 | 3.2 | 0.00 | 0.08 | 0.00 | 71 | 1004.4 |
| 20260505114548 | 11 | 91 | 0.0 | 3.2 | 0.00 | 0.08 | 0.00 | 72 | 1004.4 |
| 20260505114038 | 11 | 99 | 0.0 | 3.2 | 0.00 | 0.08 | 0.00 | 73 | 1004.4 |
| 20260505113539 | 10 | 0 | 0.0 | 3.2 | 0.00 | 0.08 | 0.00 | 74 | 1004.5 |
| 20260505113113 | 10 | 0 | 0.0 | 3.2 | 0.00 | 0.08 | 0.00 | 74 | 1004.5 |
| 20260505112540 | 10 | 0 | 0.0 | 4.8 | 0.00 | 0.08 | 0.00 | 74 | 1004.6 |
| 20260505112040 | 10 | 0 | 0.0 | 4.8 | 0.00 | 0.08 | 0.00 | 73 | 1004.5 |
| 20260505111556 | 10 | 84 | 1.6 | 6.4 | 0.00 | 0.08 | 0.00 | 73 | 1004.4 |
| 20260505111043 | 10 | 98 | 1.6 | 6.4 | 0.00 | 0.08 | 0.00 | 73 | 1004.4 |
| 20260505110540 | 10 | 0 | 1.6 | 6.4 | 0.00 | 0.08 | 0.00 | 73 | 1004.4 |
| 20260505102040 | 9 | 81 | 3.2 | 6.4 | 0.00 | 0.08 | 0.00 | 75 | 1004.3 |
| 20260505101549 | 9 | 89 | 3.2 | 6.4 | 0.00 | 0.08 | 0.00 | 75 | 1004.2 |
| 20260505101043 | 9 | 86 | 3.2 | 6.4 | 0.00 | 0.08 | 0.00 | 75 | 1004.2 |
| 20260505100542 | 9 | 91 | 1.6 | 3.2 | 0.00 | 0.08 | 0.00 | 75 | 1004.1 |
| 20260505100055 | 9 | 98 | 0.0 | 4.8 | 0.00 | 0.08 | 0.00 | 76 | 1004.0 |
| 20260505095540 | 9 | 99 | 1.6 | 6.4 | 0.00 | 0.08 | 0.00 | 75 | 1004.1 |
| 20260505095041 | 9 | 89 | 1.6 | 6.4 | 0.00 | 0.08 | 0.00 | 76 | 1004.2 |
| 20260505094549 | 8 | 99 | 1.6 | 4.8 | 0.00 | 0.08 | 0.00 | 76 | 1004.0 |
| 20260505094040 | 8 | 95 | 0.0 | 6.4 | 0.00 | 0.08 | 0.00 | 76 | 1004.2 |
| 20260505093540 | 9 | 0 | 0.0 | 8.0 | 0.00 | 0.08 | 0.00 | 75 | 1004.2 |
| 20260505093104 | 9 | 84 | 3.2 | 8.0 | 0.00 | 0.08 | 0.00 | 75 | 1004.1 |
| 20260505092541 | 9 | 90 | 4.8 | 8.0 | 0.00 | 0.08 | 0.00 | 74 | 1004.2 |
| 20260505092041 | 9 | 103 | 1.6 | 6.4 | 0.00 | 0.08 | 0.00 | 74 | 1004.1 |
| 20260505091547 | 9 | 0 | 1.6 | 6.4 | 0.00 | 0.08 | 0.00 | 75 | 1004.2 |
| 20260505091041 | 9 | 90 | 3.2 | 4.8 | 0.00 | 0.08 | 0.00 | 75 | 1004.2 |
| 20260505090540 | 9 | 103 | 1.6 | 4.8 | 0.00 | 0.08 | 0.00 | 75 | 1004.2 |
| 20260505090050 | 9 | 92 | 1.6 | 3.2 | 0.00 | 0.08 | 0.00 | 75 | 1004.3 |
| 20260505085540 | 10 | 0 | 0.0 | 1.6 | 0.00 | 0.08 | 0.00 | 74 | 1004.3 |
| 20260505085040 | 10 | 0 | 0.0 | 1.6 | 0.00 | 0.08 | 0.00 | 73 | 1004.2 |
| 20260505084554 | 10 | 0 | 0.0 | 3.2 | 0.00 | 0.08 | 0.00 | 73 | 1004.3 |
| 20260505084040 | 10 | 0 | 0.0 | 3.2 | 0.00 | 0.08 | 0.00 | 72 | 1004.3 |
| 20260505083539 | 10 | 98 | 0.0 | 3.2 | 0.00 | 0.08 | 0.00 | 73 | 1004.4 |
| 20260505083054 | 10 | 0 | 0.0 | 3.2 | 0.00 | 0.08 | 0.00 | 73 | 1004.4 |
| 20260505082540 | 10 | 0 | 0.0 | 3.2 | 0.00 | 0.08 | 0.00 | 73 | 1004.3 |
| 20260505082040 | 10 | 0 | 0.0 | 0.0 | 0.00 | 0.08 | 0.00 | 73 | 1004.4 |
| 20260505081553 | 10 | 0 | 0.0 | 3.2 | 0.00 | 0.08 | 0.00 | 73 | 1004.5 |
| 20260505081039 | 10 | 0 | 0.0 | 3.2 | 0.00 | 0.08 | 0.00 | 73 | 1004.5 |
| 20260505080539 | 10 | 265 | 0.0 | 3.2 | 0.00 | 0.08 | 0.00 | 73 | 1004.5 |
| 20260505080054 | 9 | 70 | 0.0 | 1.6 | 0.00 | 0.08 | 0.00 | 74 | 1004.6 |
| 20260505075538 | 9 | 0 | 0.0 | 1.6 | 0.00 | 0.08 | 0.00 | 74 | 1004.6 |
| 20260505075038 | 9 | 0 | 0.0 | 1.6 | 0.00 | 0.08 | 0.00 | 74 | 1004.7 |
| 20260505074555 | 9 | 0 | 0.0 | 1.6 | 0.00 | 0.08 | 0.00 | 73 | 1004.6 |
| 20260505074038 | 10 | 0 | 0.0 | 1.6 | 0.00 | 0.08 | 0.00 | 73 | 1004.6 |
| 20260505073538 | 9 | 225 | 0.0 | 1.6 | 0.00 | 0.08 | 0.00 | 74 | 1004.6 |
| 20260505073051 | 9 | 0 | 0.0 | 0.0 | 0.00 | 0.08 | 0.00 | 74 | 1004.5 |
| 20260505072538 | 10 | 0 | 0.0 | 1.6 | 0.00 | 0.08 | 0.00 | 73 | 1004.6 |
| 20260505072038 | 10 | 0 | 0.0 | 1.6 | 0.00 | 0.08 | 0.00 | 73 | 1004.6 |
| 20260505071550 | 10 | 0 | 0.0 | 1.6 | 0.00 | 0.08 | 0.00 | 73 | 1004.6 |
| 20260505071038 | 10 | 0 | 0.0 | 1.6 | 0.00 | 0.08 | 0.00 | 74 | 1004.6 |
| 20260505070538 | 9 | 235 | 0.0 | 1.6 | 0.00 | 0.08 | 0.00 | 76 | 1004.7 |
| 20260505070052 | 8 | 0 | 0.0 | 0.0 | 0.00 | 0.08 | 0.00 | 78 | 1004.7 |
| 20260505065538 | 9 | 0 | 0.0 | 0.0 | 0.00 | 0.08 | 0.00 | 77 | 1004.7 |
| 20260505065038 | 9 | 0 | 0.0 | 0.0 | 0.00 | 0.08 | 0.00 | 77 | 1004.7 |
| 20260505064554 | 9 | 0 | 0.0 | 1.6 | 0.00 | 0.08 | 0.00 | 77 | 1004.6 |
| 20260505064038 | 8 | 0 | 0.0 | 1.6 | 0.00 | 0.08 | 0.00 | 78 | 1004.6 |
| 20260505063541 | 8 | 0 | 0.0 | 1.6 | 0.00 | 0.08 | 0.00 | 78 | 1004.7 |
| 20260505063046 | 8 | 0 | 0.0 | 1.6 | 0.00 | 0.08 | 0.00 | 79 | 1004.7 |
| 20260505062538 | 8 | 0 | 0.0 | 1.6 | 0.00 | 0.08 | 0.00 | 79 | 1004.7 |
| 20260505062036 | 8 | 0 | 0.0 | 1.6 | 0.00 | 0.08 | 0.00 | 79 | 1004.7 |
| 20260505061552 | 9 | 0 | 0.0 | 4.8 | 0.00 | 0.08 | 0.00 | 78 | 1004.7 |
| 20260505061038 | 9 | 0 | 0.0 | 4.8 | 0.00 | 0.08 | 0.00 | 78 | 1004.7 |
| 20260505060538 | 9 | 99 | 1.6 | 8.0 | 0.00 | 0.08 | 0.00 | 78 | 1004.7 |
| 20260505060046 | 9 | 93 | 0.0 | 8.0 | 0.00 | 0.08 | 0.00 | 78 | 1004.7 |
| 20260505055539 | 9 | 104 | 4.8 | 8.0 | 0.00 | 0.08 | 0.00 | 78 | 1004.9 |
| 20260505055038 | 9 | 0 | 0.0 | 0.0 | 0.00 | 0.08 | 0.00 | 77 | 1004.7 |
| 20260505054546 | 9 | 0 | 0.0 | 1.6 | 0.00 | 0.08 | 0.00 | 77 | 1004.7 |
| 20260505054040 | 10 | 0 | 0.0 | 1.6 | 0.00 | 0.08 | 0.00 | 77 | 1004.7 |
| 20260505053538 | 10 | 0 | 0.0 | 1.6 | 0.00 | 0.08 | 0.00 | 77 | 1004.5 |
| 20260505053111 | 10 | 0 | 0.0 | 1.6 | 0.00 | 0.08 | 0.00 | 76 | 1004.5 |
| 20260505052538 | 10 | 0 | 0.0 | 3.2 | 0.00 | 0.08 | 0.00 | 77 | 1004.6 |
| 20260505052041 | 9 | 0 | 0.0 | 3.2 | 0.00 | 0.08 | 0.00 | 77 | 1004.5 |
| 20260505051549 | 9 | 0 | 0.0 | 3.2 | 0.00 | 0.08 | 0.00 | 77 | 1004.6 |
| 20260505051038 | 9 | 0 | 0.0 | 0.0 | 0.00 | 0.08 | 0.00 | 76 | 1004.6 |
| 20260505050538 | 10 | 0 | 0.0 | 0.0 | 0.00 | 0.08 | 0.00 | 75 | 1004.6 |
| 20260505050103 | 10 | 0 | 0.0 | 0.0 | 0.00 | 0.08 | 0.00 | 75 | 1004.5 |
| 20260505041550 | 10 | 0 | 0.0 | 3.2 | 0.00 | 0.08 | 0.00 | 74 | 1004.4 |
| 20260505041044 | 10 | 0 | 0.0 | 3.2 | 0.00 | 0.08 | 0.00 | 73 | 1004.4 |
| 20260505040541 | 10 | 234 | 0.0 | 1.6 | 0.00 | 0.08 | 0.00 | 72 | 1004.3 |
| 20260505040058 | 11 | 0 | 0.0 | 0.0 | 0.00 | 0.08 | 0.00 | 71 | 1004.3 |
| 20260505035540 | 11 | 0 | 0.0 | 0.0 | 0.00 | 0.08 | 0.08 | 71 | 1004.3 |
| 20260505035040 | 11 | 0 | 0.0 | 1.6 | 0.00 | 0.08 | 0.08 | 70 | 1004.3 |
| 20260505034612 | 11 | 0 | 0.0 | 1.6 | 0.00 | 0.08 | 0.08 | 70 | 1004.3 |
| 20260505034040 | 11 | 0 | 0.0 | 1.6 | 0.00 | 0.08 | 0.08 | 71 | 1004.3 |
| 20260505033540 | 11 | 0 | 0.0 | 0.0 | 0.00 | 0.08 | 0.08 | 71 | 1004.3 |
| 20260505033055 | 11 | 0 | 0.0 | 0.0 | 0.00 | 0.08 | 0.08 | 71 | 1004.3 |
| 20260505032540 | 11 | 0 | 0.0 | 0.0 | 0.00 | 0.08 | 0.08 | 71 | 1004.2 |
| 20260505032039 | 11 | 0 | 0.0 | 0.0 | 0.00 | 0.08 | 0.08 | 70 | 1004.3 |
| 20260505031555 | 11 | 0 | 0.0 | 0.0 | 0.00 | 0.08 | 0.08 | 70 | 1004.3 |
| 20260505031041 | 11 | 0 | 0.0 | 1.6 | 0.00 | 0.08 | 0.08 | 69 | 1004.3 |
| 20260505030541 | 11 | 0 | 0.0 | 1.6 | 0.00 | 0.08 | 0.08 | 69 | 1004.3 |
| 20260505030051 | 11 | 0 | 0.0 | 1.6 | 0.00 | 0.08 | 0.08 | 69 | 1004.3 |
| 20260505025542 | 11 | 0 | 0.0 | 1.6 | 0.00 | 0.08 | 0.08 | 68 | 1004.3 |
| 20260505025041 | 12 | 0 | 0.0 | 1.6 | 0.00 | 0.08 | 0.08 | 68 | 1004.3 |
| 20260505024552 | 12 | 0 | 0.0 | 4.8 | 0.00 | 0.08 | 0.08 | 68 | 1004.4 |
| 20260505024041 | 12 | 100 | 0.0 | 4.8 | 0.00 | 0.08 | 0.08 | 68 | 1004.5 |
| 20260505023541 | 12 | 113 | 1.6 | 4.8 | 0.00 | 0.08 | 0.08 | 67 | 1004.5 |
| 20260505023053 | 12 | 107 | 0.0 | 1.6 | 0.00 | 0.08 | 0.08 | 68 | 1004.6 |
| 20260505022543 | 12 | 0 | 0.0 | 0.0 | 0.00 | 0.08 | 0.08 | 68 | 1004.6 |
| 20260505022040 | 12 | 0 | 0.0 | 0.0 | 0.00 | 0.08 | 0.08 | 68 | 1004.6 |
| 20260505021554 | 12 | 0 | 0.0 | 0.0 | 0.00 | 0.08 | 0.08 | 68 | 1004.7 |
| 20260505021041 | 12 | 0 | 0.0 | 0.0 | 0.00 | 0.08 | 0.08 | 67 | 1004.7 |
| 20260505020540 | 12 | 0 | 0.0 | 0.0 | 0.00 | 0.08 | 0.08 | 68 | 1004.7 |
| 20260505020057 | 12 | 0 | 0.0 | 0.0 | 0.00 | 0.08 | 0.08 | 67 | 1004.7 |
| 20260505015541 | 12 | 0 | 0.0 | 1.6 | 0.00 | 0.08 | 0.08 | 67 | 1004.7 |
| 20260505015040 | 12 | 0 | 0.0 | 1.6 | 0.00 | 0.08 | 0.08 | 68 | 1004.8 |
| 20260505014553 | 12 | 107 | 0.0 | 1.6 | 0.00 | 0.08 | 0.08 | 68 | 1004.7 |